Flag for Yemen Weather past 2 weeks in Al Hudaydah, Yemen

Now
82 °F

Clear.


Feels Like: 87 °F
Forecast: 74 / 84 °F
Wind: 15 mph from South

Location: Hodeidah

Current Time: Dec 28, 2014 at 6:13:47 PM

Latest Report: Dec 28, 2014 at 5:00 PM


Visibility: 5 mi

Pressure: 29.95 "Hg

Humidity: 70%

Dew point: 72 °F

Location of Al HudaydahLocation

Historic Weather in Al Hudaydah — Graph

°F

Al Hudaydah temperature yesterday

Maximum temperature yesterday: 79 °F (at 8:00 PM)
Minimum temperature yesterday: 75 °F (at 11:00 PM)
Average temperature yesterday: 77 °F

Past Weeks' High & Low Weather Summary

 TemperatureHumidityPressure
High86 °F (Dec 25, 2:00 PM)94% (Dec 18, 5:00 AM)30.07 "Hg (Dec 18, 5:00 AM)
Low68 °F (Dec 24, 6:00 AM)52% (Dec 25, 2:00 PM)29.86 "Hg (Dec 21, 2:00 PM)
Average79 °F75%29.97 "Hg
* Reported Dec 17 11:00 AM — Dec 28 5:00 PM, Al Hudaydah, Weather by CustomWeather, © 2014

Note: Actual official high and low records may vary slightly from our data, if they occured in-between our weather recording intervals... More about our weather records

Advertising

Al Hudaydah weather history for previous 24 hours

 ConditionsComfort  
Time TempWeatherWind HumidityBarometerVisibility
5:00 PM
Dec 28
82 °FClear.15 mph70%29.95 "Hg5 mi
4:00 PM84 °FClear.15 mph66%29.95 "Hg4 mi
3:00 PM84 °FPassing clouds.17 mph66%29.95 "Hg4 mi
2:00 PM84 °FLow level haze.18 mph62%29.95 "Hg3 mi
1:00 PM84 °FLow level haze.20 mph62%29.98 "Hg3 mi
12:00 PM84 °FLow level haze.22 mph62%30.01 "Hg3 mi
11:00 AM82 °FClear.21 mph66%30.04 "Hg4 mi
10:00 AM82 °FClear.20 mph66%30.04 "Hg4 mi
9:00 AM79 °FClear.10 mph74%30.07 "Hg4 mi
8:00 AM73 °FHaze.6 mph83%30.04 "Hg3 mi
7:00 AM70 °FHaze.5 mph88%30.01 "Hg2 mi
6:00 AM72 °FHaze.5 mph83%29.98 "Hg3 mi
5:00 AM72 °FClear.6 mph88%29.95 "Hg4 mi
4:00 AM72 °FClear.6 mph88%29.95 "Hg4 mi
3:00 AM72 °FClear.2 mph88%29.95 "Hg5 mi
2:00 AM72 °FClear.2 mph83%29.95 "Hg5 mi
1:00 AM73 °FClear.2 mph78%29.95 "Hg5 mi
12:00 AM75 °FClear.2 mph78%29.95 "Hg5 mi
11:00 PM
Dec 27
75 °FClear.3 mph78%29.95 "Hg5 mi
10:00 PM77 °FClear.5 mph79%29.95 "Hg5 mi
9:00 PM79 °FClear.7 mph74%29.95 "Hg5 mi
8:00 PM79 °FClear.9 mph79%29.95 "Hg5 mi
Weather by CustomWeather, © 2014

See weather overviewHow to use our weather pages